This demonstration page uses our WeatherBlox Daily Observations layout. Learn more.

Left ArrowRight Arrow

Hourly Observations for May 23, 2016

Temp ( °F °C ) Dew Point ( °F °C ) Humidity (%) Winds ( mph kmh ) Pressure ( in mb ) Visibility ( mi km ) Precip ( " mm )
12:53 am 00:53 Clear 52 11.1 50 10 93 93 N N/A 30.01 1016 10 16 N/A
1:53 am 01:53 Clear 50 10 46 7.8 86 86 NW 3 6 30.01 1016 10 16 N/A
2:53 am 02:53 Clear 48 8.9 45 7.2 89 89 N N/A 30.01 1016 10 16 N/A
3:53 am 03:53 Clear 46 7.8 44 6.7 93 93 N N/A 30.01 1016 8 13 N/A
4:53 am 04:53 Clear 45 7.2 44 6.7 97 97 N N/A 30.02 1017 9 14 N/A
5:53 am 05:53 Clear 44 6.7 42 5.6 93 93 N N/A 30.04 1017 8 13 N/A
6:53 am 06:53 Sunny with Mist and Fog 45 7.2 44 6.7 97 97 N N/A 30.07 1018 5 8 N/A
7:53 am 07:53 Sunny 52 11.1 49 9.4 89 89 N N/A 30.09 1019 7 11 N/A
8:53 am 08:53 Sunny 59 15 47 8.3 64 64 N N/A 30.10 1019 10 16 N/A
9:53 am 09:53 Sunny 64 17.8 48 8.9 56 56 N N/A 30.11 1020 10 16 N/A
10:53 am 10:53 Sunny 68 20 50 10 53 53 VRB 3 6 30.09 1019 10 16 N/A
11:53 am 11:53 Sunny 70 21.1 48 8.9 46 46 S 3 6 30.08 1019 10 16 N/A
12:53 pm 12:53 Sunny 73 22.8 50 10 44 44 VRB 5 7 30.07 1018 10 16 N/A
1:53 pm 13:53 Sunny 75 23.9 50 10 41 41 E 10 17 30.05 1018 10 16 N/A
2:53 pm 14:53 Sunny 75 23.9 50 10 41 41 E 9 15 30.04 1017 10 16 N/A
3:53 pm 15:53 Sunny 77 25 50 10 39 39 undefined N/A 30.02 1017 10 16 N/A
4:53 pm 16:53 Sunny 76 24.4 47 8.3 36 36 VRB 3 6 30.00 1016 10 16 N/A
5:53 pm 17:53 Sunny 77 25 49 9.4 37 37 VRB 3 6 30.00 1016 10 16 N/A
6:53 pm 18:53 Sunny 76 24.4 47 8.3 36 36 N N/A 30.00 1016 10 16 N/A
7:53 pm 19:53 Sunny 73 22.8 50 10 44 44 E 6 9 30.00 1016 10 16 N/A
8:53 pm 20:53 Clear 64 17.8 53 11.7 68 68 N N/A 30.01 1016 10 16 N/A
9:53 pm 21:53 Clear 59 15 53 11.7 81 81 N N/A 30.02 1017 10 16 N/A
10:53 pm 22:53 Clear 56 13.3 52 11.1 87 87 N N/A 30.04 1017 10 16 N/A
11:53 pm 23:53 Clear 54 12.2 52 11.1 93 93 N N/A 30.04 1017 10 16 N/A

Powered by AerisWeather